Regional Weather Roundup
Issued by NWS

Home | Current Version | Previous Version | Text Only | Print | Product List | Glossary Off
Versions: 1 2 3 4 5 6 7 8 9 10 11 12 13 14 15 16 17 18 19 20 21 22 23 24 25 26 27 28 29 30 31 32 33 34 35 36 37 38 39 40 41 42 43 44 45 46 47 48 49 50

000
ASUS43 KLMK 251202
RWRKY
KENTUCKY REGIONAL WEATHER ROUNDUP
NATIONAL WEATHER SERVICE LOUISVILLE KY
800 AM EDT SAT OCT 25 2014

NOTE "FAIR" INDICATES FEW OR NO CLOUDS BELOW 12,000 FEET
WITH NO SIGNIFICANT WEATHER AND/OR OBSTRUCTIONS TO VISIBILITY.

KYZ001>023-026-027-061>063-070>075-251300-
WESTERN AND SOUTH CENTRAL KENTUCKY

CITY           SKY/WX    TMP DP  RH WIND       PRES   REMARKS
PADUCAH        CLOUDY    57  54  89 SW7       30.03S
HENDERSON      PTCLDY   N/A N/A N/A SW8       30.01S
OWENSBORO      CLOUDY    57  53  86 S6        30.03S
HOPKINSVILLE   MOCLDY    55  55 100 S3        30.06S
BOWLING GREEN  PTCLDY    45  42  89 CALM      30.07F
GLASGOW        NOT AVBL
$$

KYZ024-025-028>034-038-045-046-053-251300-
NORTH CENTRAL KENTUCKY

CITY           SKY/WX    TMP DP  RH WIND       PRES   REMARKS
LOUISVILLE/SDF CLOUDY    53  49  86 SE5       30.02S
LOUISVILLE/LOU CLOUDY    52  49  89 CALM      30.02F
FORT KNOX      CLOUDY    51  49  92 SW3       30.02F
$$

KYZ035>037-039>044-047>052-055>060-089>105-251300-
NORTHEAST KENTUCKY

CITY           SKY/WX    TMP DP  RH WIND       PRES   REMARKS
LEXINGTON      PTCLDY    47  43  86 S7        30.05S
COVINGTON      MOCLDY    50  45  83 S8        29.99F
FRANKFORT      PTCLDY    43  41  93 CALM      30.02F
$$

KYZ054-064>069-076>088-106>120-251300-
SOUTHEAST KENTUCKY

CITY           SKY/WX    TMP DP  RH WIND       PRES   REMARKS
JACKSON        CLEAR     42  39  89 CALM      30.06F
LONDON         CLEAR     40  37  89 CALM      30.08F
SOMERSET       CLEAR     39  39 100 CALM      30.10R FOG
MIDDLESBORO    FOG       38  38 100 CALM      30.12S VSB<1/4
MONTICELLO     SUNNY     41  40  96 CALM      30.10S FOG
$$




USA.gov is the U.S. government's official web portal to all federal, state and local government web resources and services.